Regional Weather Roundup
Issued by NWS Wakefield, VA

Home | Current Version | Previous Version | Graphics & Text | Print | Product List | Glossary On
Versions: 1 2 3 4 5 6 7 8 9 10 11 12 13 14 15 16 17 18 19 20 21 22 23 24 25 26 27 28 29 30 31 32 33 34 35 36 37 38 39 40 41 42 43 44 45 46 47 48 49 50
000
ASUS41 KAKQ 051010
RWRAKQ

REGIONAL WEATHER ROUNDUP
NATIONAL WEATHER SERVICE WAKEFIELD VA
500 AM EST THU MAR 05 2015

Note: "fair" indicates few or no clouds below 12,000 feet with no
significant weather and/or obstructions to visibility. * = Denotes
station may not report precipitation (e.g., rain,snow,etc.),
thunder or fog.

VAZ042-051-052>054-056-051100-
NORTHERN VIRGINIA

CITY           SKY/WX    TMP DP  RH WIND       PRES   REMARKS
WASH NATIONAL  LGT RAIN  40  35  83 NW9       30.03R
DULLES         CLOUDY    36  32  85 N13       30.02R
FORT BELVOIR   LGT RAIN  37  34  87 NW7       30.04R
QUANTICO       LGT RAIN  38  34  85 NE10      30.03R
FREDERICKSBRG* RAIN      39  39 100 N8        30.01R
STAFFORD*      DRIZZLE   37  32  82 N7        30.05R
WARRENTON      LGT RAIN  37  37 100 N8        30.02R
CULPEPER*      DRIZZLE   37  37 100 N7        30.02R
MANASSAS*      CLOUDY    37  37 100 N12       30.02R
LEESBURG*      CLOUDY    36  34  93 N18G25    30.04R
WINCHESTER     RAIN      34  30  86 NW7       30.03R
FRONT ROYAL*   CLOUDY    34  32  93 N5        30.01R
LURAY*         CLOUDY    37  37 100 CALM      30.01R
$$

VAZ048-049-060>072-079>083-051100-
CENTRAL AND SOUTH CENTRAL VIRGINIA

CITY           SKY/WX    TMP DP  RH WIND       PRES   REMARKS
RICHMOND       LGT RAIN  42  39  89 NE18      29.98R FOG
CHESTERFIELD*  CLOUDY    45  34  65 N13       29.97R
PETERSBURG*    LGT RAIN  46  45  93 NE15      29.96R
HANOVER        LGT RAIN  39  38  96 N8        30.00R FOG
TAPPAHANNOCK*  RAIN      41  38  91 N8G20     30.00R
QUINTON*       CLOUDY    42  41  96 N6        29.98R
CHARLOTTSVILLE CLOUDY    40  38  93 NE9       29.95R
GORDONSVILLE*  CLOUDY    37  36  96 NE8       29.97R
ORANGE*        DRIZZLE   37  37 100 N9        29.99R
LOUISA*        LGT RAIN  39  37  93 NE9       29.97R
BUMPASS*       CLOUDY    39  37  95 NE7       29.97F
FARMVILLE*     DRIZZLE   49  49 100 NE8       29.87F
CREWE*         CLOUDY    48  46  95 NE8       29.92R
FORT PICKETT*  CLOUDY    47  47  98 NE15      29.93R
CHASE CITY*    CLOUDY    53  53 100 N6        29.89S
CLARKSVILLE*   CLOUDY    52  52 100 N8        29.88R
SOUTH HILL*    CLOUDY    52  51  97 N6        29.95R
LAWRENCEVILLE* CLOUDY    52  52  99 CALM      29.90R
EMPORIA*       LGT RAIN  52  52 100 N8        29.92R
$$

VAZ088>098-051100-
SOUTHEAST VIRGINIA

CITY           SKY/WX    TMP DP  RH WIND       PRES   REMARKS
NORFOLK        CLOUDY    40  38  93 N16G23    29.94R
VIRGINIA BEACH LGT RAIN  44  41  89 NW6       29.93R FOG
NORFOLK NAVAL  LGT RAIN  45  40  82 N18       29.95R
WEST POINT*    CLOUDY    46  43  91 N7        29.99R
SALUDA*        CLOUDY    41  40  96 N8        29.98R
NEWPORT NEWS   LGT RAIN  48  43  82 NE9       29.96R
LANGLEY AFB    DRIZZLE   45  43  93 N12       29.95R
FORT EUSTIS    LGT RAIN  46 N/A N/A NE7       29.94R
WILLIAMSBURG*  CLOUDY    46  46 100 NE5       29.97R
HR EXEC AP*    CLOUDY    46  45  93 NE10G16   29.95R
FRANKLIN*      CLOUDY    51  50  97 NE8       29.92R
WAKEFIELD      RAIN      47  45  93 NE7       29.95R FOG
$$

VAZ020-022-025-037-045-051100-
WEST CENTRAL AND SOUTHWEST VIRGINIA

CITY           SKY/WX    TMP DP  RH WIND       PRES   REMARKS
STAUNTON*      CLOUDY    37  36  96 N14       29.97R
WAYNESBORO*    CLOUDY    37  36  96 N9        29.94R
HOT SPRINGS VA SNOW      30  30 100 NW13G18   29.86S VSB 1/4 WCI  20
LYNCHBURG      LGT RAIN  47  47 100 N6        29.92R FOG
DANVILLE       LGT RAIN  52  49  89 N7        29.89R
SOUTH BOSTON*  CLOUDY    51  50  96 NE6       29.89S
MARTINSVILLE   CLOUDY    49  49 100 CALM      29.90F
ROANOKE        CLOUDY    43  40  89 N7        29.94R
BLACKSBURG     CLOUDY    36  36  97 NW6       29.94R
DUBLIN*        CLOUDY    37  36  96 NW5       29.95R
MARION*        DRIZZLE   37  34  89 W5        29.94R
HILLSVILLE*    DRIZZLE   39  39 100 N8        29.90R
RICHLANDS*     MIX PCPN  31  30  95 NE3       29.96S
WISE*          LGT SNOW  32  32 100 N8        30.00R
ABINGDON*      DRIZZLE   37  36  96 N3        29.93R
$$

MDZ021>025-VAZ099-100-051100-
SOUTHERN MARYLAND AND THE DELMARVA PENINSULA

CITY           SKY/WX    TMP DP  RH WIND       PRES   REMARKS
PATUXENT RIVER LGT RAIN  39  37  92 N16       30.00R FOG
BAY BRIDGE APT   N/A     34  34 100 N8        30.02S
LEONARDTOWN    CLOUDY    37  36  93 N5        30.02R
DOVER          LGT RAIN  37  37 100 NW9       30.01R
GEORGETOWN     LGT RAIN  38  36  92 N10G16    30.00R FOG
EASTON         DRIZZLE   39  39 100 N12       30.05R
CAMBRIDGE      CLOUDY    37  36  93 N12G22    29.99S
SALISBURY      LGT RAIN  42  38  85 N9        29.98R FOG
OCEAN CITY     LGT RAIN  39  38  96 N10       29.98R FOG
WALLOPS ISLAND LGT RAIN  42  41  96 NE10      29.95R FOG
ACCOMACK*      DRIZZLE   45  43  93 N9        29.94R
$$

NCZ012>017-030>032-051100-
NORTH CENTRAL AND EASTERN NORTH CAROLINA

CITY           SKY/WX    TMP DP  RH WIND       PRES   REMARKS
ROANOKE RAPIDS RAIN      54  54 100 NE3       29.88R
RALEIGH        MOCLDY    64  58  80 SW10      29.86S
ELIZABETH CITY CLOUDY    60  58  92 SW3       29.90R
AHOSKIE*       CLOUDY    53  52  97 N6        29.91R FOG
EDENTON*       PTCLDY    61  59  94 SW8       29.89S
CURRITUCK*     CLOUDY    52  49  91 N8        29.92R
KILL DEVIL HLS CLOUDY    63  63 100 SW12G20   29.90R
MANTEO         CLOUDY    61  61 100 SW18G28   29.92R
CAPE HATTERAS  CLOUDY    60  60 100 SW16G25   29.95R FOG
TARBORO*       PTSUNNY   65  60  84 S7        29.88S
GOLDSBORO      PTCLDY    65  65 100 SW12G18   29.88S
WASHINGTON     PTCLDY    66  63  90 SW8       29.91R
GREENVILLE     PTCLDY    64  63  94 SW12      29.91S
NEW BERN       PTCLDY    66  63  90 SW9       29.94R
WILMINGTON     CLEAR     64  61  90 SW13      29.97R
$$

VAZ048-051100-
ELSEWHERE

CITY           SKY/WX    TMP DP  RH WIND       PRES   REMARKS
HARRISBURG PA  LGT SNOW  32  29  88 N14       30.02R VSB 1   WCI  22
BALTIMORE      LGT RAIN  36  33  89 N7        30.00R
ANNAPOLIS      MIX PCPN  37  34  89 N10       30.02R
ANDREWS AFB    DRIZZLE   37  36  96 N14       30.00R
PHILADELPHIA   LGT RAIN  36  32  85 NW10      30.02R FOG
HENDERSON NC   DRIZZLE   52  51  95 CALM      29.87S
GREENSBORO     CLOUDY    52  50  93 NE9       29.86S
ROCKY MOUNT    MOCLDY    65  61  87 S12       29.87S
$$

VAZ100-051100-
MARINE

STATION/POSITION TIME  TEMP    WIND        PRES    WAVE   SWELL
                       AIR SEA DIR/SP/G            HT/PER HT/PER
                 (UTC) (F)     (DEG/KT/KT) (MB)    (FT/S) (FT/S)
BRANDYWINE LGT   1000                      1015.3R
CAPE MAY NJ      1000                      1014.8R
LEWES DE         1000                      1015.3R
15NM E FENWICK I 1000   36 36              1014.1R   3/ 7
OCEAN-CITY-INLET 1000                      1014.0R
WACHAPREAGUE VA  1000                      1013.3R
THOMAS POINT MD  1000   36 32   10/ 11/ 13 1017.2R
COVE POINT MD    1000                      1015.4R
SOLOMONS ISLAND  0900      33                N/A
BISHOPS HEAD MD  1000                      1014.7R
CAMBRIDGE MD     1000                      1015.4F
LEWISETTA VA     1000                      1015.3R
RAPPAHANNOCK LGT 1000                      1014.8R
STINGRAY PT      1000   37 33   10/ 14/ 16   N/A     1/ 2
YORK RVR RNG VA  1000                      1013.6R
YORKTOWN VA      1000                      1014.3R
DOMINION TERM VA 1000                      1013.7R
KIPTOPEKE VA     0900      40  340/  6/  7   N/A
CHES BAY BRIDGE  1000                      1012.6S
CAPE HENRY VA    1000                      1011.9F
CHESAPEAKE LGHT  0900   44     350/ 10/ 10 1013.3R
WILLOUBY STN VA  1000                      1014.2R
S CRANEY ISL VA  1000                      1013.6R
CAPE HENRY BUOY  1000      37                N/A     3/ 6
1ST LANDING BUOY 1000   36 34  330/ 12/ 16 1013.5R   2/ 4
OFFSHORE WE BUOY 1000      37                N/A     4/ 7   3/ 7
64NM E OF VA BCH 1000   51 52  260/ 10/ 14 1012.5R   6/ 7   5/ 7
DUCK PIER NC     1000                      1011.3F
44100 DUCK FRF   1000      37                N/A     4/ 6
44056 DUCK FRF   1000      36                N/A     3/ 7   2/11
OREGON INLET NC  1000                      1013.4R
HATTERAS NC      1000                      1014.2R
CAPE LOOKOUT NC  1000   61     210/ 13/ 18 1014.9R
$$


USA.gov is the U.S. government's official web portal to all federal, state and local government web resources and services.